{"data":{"norad_id":64524,"intl_designator":"2025-134AA","name":"KUIPER-00064","alt_names":[],"object_type":"PAYLOAD","status":"ACTIVE","operator":null,"country":"US","launch_date":"2025-06-23","launch_site_code":"AFETR","launch_vehicle":null,"mission":null,"orbit_class":"UNKNOWN","rcs_meters":null,"size_class":null,"mass_kg":null,"dimensions":null,"purposes":[],"wikipedia_slug":null,"has_3d_model":false,"image_url":null,"decayed_at":null,"tle_current":{"epoch":"2026-09-21T19:14:32.374176Z","epoch_age_seconds":69364,"freshness":"FRESH","line1":"1 64524U 25134AA  26264.80176359  .00000248  00000+0  61536-4 0  9993","line2":"2 64524  51.9011  88.3658 0000945 122.3213 237.7841 14.79929863 69083","mean_motion":14.79929863,"eccentricity":9.45e-5,"inclination_deg":51.9011,"raan_deg":88.3658,"arg_perigee_deg":122.3213,"mean_anomaly_deg":237.7841,"bstar":6.1536e-5,"rev_number":6908,"period_min":97.301908421588,"perigee_km":628.88330592487,"apogee_km":630.2077579234,"semimajor_km":7007.6825319241,"source":"CELESTRAK","updated_at":"2026-09-22T09:00:29.813360Z"}}}